Airfield :
LOGIN :

Register | Disclaimer

   EN    FR    IT 

 










Legend :    VFR   Marginal VFR   IFR   Intensive IFR   Very Intensive IFR
Visi :
Ceiling :
>= 8 km
>= 3000ft
5 to 8 km
1000 to 3000 ft
1500m to 5 km
500 to 1000 ft
800 to 1500m
200 to 500 ft
< 800m
< 200 ft
Symbols :   Thunderstorms  Fog  Heavy snow  Heavy precipitations  Wind > 20 kt
SIGMETs :     Misc.  Thunderstorms  Icing  Turbulence  Mountain Waves  Volcanic Ashes






- Airport Elevation : 76 ft
- IATA code : KID


ESMK - Kristianstad

CURRENT METAR :
  • 180720Z AUTO 36003KT 310V050 9999 NCD 08/01 Q1024

EXPIRED METARs :
  • 180650Z AUTO 32004KT 280V340 9999 FEW100/// 07/01 Q1024
  • 180620Z AUTO 31003KT 9999 BKN098/// 06/M00 Q1024
  • 180550Z AUTO 29004KT 9999 FEW098/// 04/M01 Q1024
  • 180520Z AUTO 29004KT 9999 NCD 04/M01 Q1024

Expired Forecast.



MET'MAP, your aeronautical weather chart ! - Copyright ORBIFLY December 2007 - Disclaimer

ORBIFLY MET'MAP TEAM :

Programming & Development : Alexandra Zaïnal
Concept & original design : Baudouin d'Aumeries
Assistance for programming : Marc-Olivier Méhu
Technical & hardware support : Manuel Goepfert

Contact : metmap@orbifly.com




SOURCES & CREDITS :

   NOAA